Flag for Poland Weather past 2 weeks in Słupsk, Poland

Now
47 °F

Fog.


Feels Like: 47 °F
Forecast: 55 / 59 °F
Wind: 2 mph from East

Location: Leba

Current Time: Sep 21, 2014 at 4:00:55 AM

Latest Report: Sep 21, 2014 at 3:00 AM


Visibility: 0 mi

Pressure: 29.86 "Hg

Humidity: 97%

Dew point: 46 °F

Location of SłupskLocation

Historic Weather in Słupsk — Graph

°F

Słupsk temperature yesterday

Maximum temperature yesterday: 65 °F (at 12:00 PM)
Minimum temperature yesterday: 50 °F (at 10:00 PM)
Average temperature yesterday: 56 °F

Past Weeks' High & Low Weather Summary

 TemperatureHumidityPressure
High74 °F (Sep 19, 3:00 PM)98% (Sep 11, 7:00 AM)30.28 "Hg (Sep 11, 7:00 AM)
Low46 °F (Sep 11, 5:00 AM)35% (Sep 18, 3:00 PM)29.85 "Hg (Sep 10, 5:00 AM)
Average60 °F81%30.09 "Hg
* Reported Sep 6 2:00 AM — Sep 21 2:00 AM, Słupsk, Weather by CustomWeather, © 2014

Note: Actual official high and low records may vary slightly from our data, if they occured in-between our weather recording intervals... More about our weather records

Advertising

Słupsk weather history for previous 24 hours

 ConditionsComfort  
Time TempWeatherWind HumidityBarometerVisibility
2:00 AM
Sep 21
47 °FFog.1 mph97%29.87 "Hg0 mi
1:00 AM47 °FFog.1 mph96%29.88 "Hg0 mi
12:00 AM47 °FFog.2 mph96%29.89 "Hg0 mi
11:00 PM
Sep 20
50 °FFog.3 mph96%29.90 "Hg1 mi
10:00 PM50 °FFog.1 mph95%29.91 "Hg2 mi
9:00 PM50 °FFog.1 mph93%29.92 "Hg2 mi
8:00 PM53 °FFog.1 mph92%29.92 "Hg2 mi
7:00 PM55 °FFog.3 mph87%29.92 "Hg5 mi
3:00 PM62 °FPassing clouds.3 mph78%29.95 "Hg7 mi
2:00 PM63 °FPassing clouds.5 mph74%29.95 "Hg7 mi
1:00 PM63 °FPassing clouds.3 mph76%29.96 "Hg7 mi
12:00 PM65 °FPassing clouds.2 mph70%29.96 "Hg8 mi
11:00 AM64 °FPassing clouds.2 mph76%29.97 "Hg7 mi
10:00 AM62 °FPassing clouds.1 mph80%29.98 "Hg7 mi
9:00 AM57 °FFog.2 mph89%29.97 "Hg5 mi
8:00 AM53 °FFog.3 mph95%29.97 "Hg4 mi
7:00 AM51 °FFog.2 mph95%29.97 "Hg4 mi
6:00 AM52 °FFog.2 mph94%29.97 "Hg6 mi
5:00 AMN/APassing clouds.23 mphN/AN/A2 mi
4:00 AM53 °FClear.1 mph93%29.98 "Hg6 mi
Weather by CustomWeather, © 2014

See weather overviewHow to use our weather pages